FJI910 YSSY-NFFN

Flight info

Callsign FJI910
Flight time N/A
Altitude 41000
Route 3358S15112E DCT TESAT G595 SOTKI DCT 30S160E DCT UBLIN A579 TUTMU MIKAX2B
Aircraft A359/H-SDE2E3GHIJ3J4J5LM1ORWXY/LB1D1

Departure

Time 2026-05-08 04:32
Airport Sydney Kingsford Smith International Airport (YSSY)

Arrival

Time N/A
Airport Nadi International Airport (NFFN)
Time Latitude Longitude Altitude Speed Heading
2026-05-08 04:08 -33.94012 151.16624 27 ft 0 kts 345°
2026-05-08 04:20 -33.94026 151.16628 26 ft 3 kts 350°
2026-05-08 04:20 -33.94048 151.16631 26 ft 3 kts
2026-05-08 04:20 -33.94070 151.16629 26 ft 3 kts 14°
2026-05-08 04:20 -33.94091 151.16620 26 ft 3 kts 31°
2026-05-08 04:21 -33.94108 151.16604 25 ft 3 kts 49°
2026-05-08 04:21 -33.94121 151.16582 25 ft 3 kts 64°
2026-05-08 04:21 -33.94129 151.16557 27 ft 4 kts 74°
2026-05-08 04:21 -33.94132 151.16545 27 ft 5 kts 74°
2026-05-08 04:25 -33.94132 151.16546 27 ft 1 kts 73°
2026-05-08 04:25 -33.94118 151.16600 27 ft 12 kts 72°
2026-05-08 04:26 -33.94084 151.16744 27 ft 21 kts 74°
2026-05-08 04:26 -33.94044 151.16913 27 ft 21 kts 76°
2026-05-08 04:26 -33.94017 151.17032 27 ft 21 kts 73°
2026-05-08 04:26 -33.93977 151.17200 25 ft 22 kts 76°
2026-05-08 04:27 -33.93972 151.17223 26 ft 0 kts 75°
2026-05-08 04:27 -33.93967 151.17248 30 ft 10 kts 75°
2026-05-08 04:27 -33.93934 151.17395 26 ft 24 kts 74°
2026-05-08 04:27 -33.93888 151.17584 28 ft 24 kts 74°
2026-05-08 04:28 -33.93843 151.17776 27 ft 23 kts 74°
2026-05-08 04:28 -33.93801 151.17952 34 ft 20 kts 74°
2026-05-08 04:28 -33.93763 151.18107 37 ft 19 kts 76°
2026-05-08 04:28 -33.93728 151.18265 37 ft 20 kts 72°
2026-05-08 04:29 -33.93688 151.18424 37 ft 20 kts 74°
2026-05-08 04:29 -33.93650 151.18588 37 ft 21 kts 74°
2026-05-08 04:29 -33.93612 151.18758 37 ft 21 kts 75°
2026-05-08 04:29 -33.93600 151.18876 36 ft 9 kts 98°
2026-05-08 04:30 -33.93633 151.18937 31 ft 3 kts 147°
2026-05-08 04:30 -33.93636 151.18939 31 ft 1 kts 150°
2026-05-08 04:30 -33.93652 151.18945 31 ft 4 kts 163°
2026-05-08 04:31 -33.93689 151.18957 30 ft 6 kts 165°
2026-05-08 04:31 -33.93732 151.18959 31 ft 6 kts 189°
2026-05-08 04:31 -33.93762 151.18935 32 ft 7 kts 231°
2026-05-08 04:31 -33.93789 151.18841 32 ft 19 kts 253°
2026-05-08 04:32 -33.93881 151.18457 36 ft 76 kts 254°
2026-05-08 04:32 -33.94076 151.17629 28 ft 128 kts 254°
2026-05-08 04:32 -33.94343 151.16508 372 ft 137 kts 258°
2026-05-08 04:32 -33.94619 151.15388 911 ft 139 kts 257°
2026-05-08 04:33 -33.94912 151.14296 1412 ft 141 kts 254°
2026-05-08 04:33 -33.95537 151.13290 1488 ft 167 kts 220°
2026-05-08 04:33 -33.96756 151.12894 1560 ft 202 kts 189°
2026-05-08 04:33 -33.98177 151.13380 1842 ft 228 kts 161°
2026-05-08 04:34 -33.99465 151.14705 1996 ft 261 kts 134°
2026-05-08 04:34 -34.00282 151.16711 2539 ft 273 kts 112°
2026-05-08 04:34 -34.00659 151.18948 3296 ft 271 kts 103°
2026-05-08 04:34 -34.00938 151.21195 3993 ft 272 kts 103°
2026-05-08 04:35 -34.01196 151.23470 4658 ft 274 kts 103°
2026-05-08 04:35 -34.01427 151.25712 5324 ft 273 kts 103°
2026-05-08 04:35 -34.01642 151.28002 5941 ft 278 kts 99°
2026-05-08 04:35 -34.01572 151.30356 6559 ft 284 kts 90°
2026-05-08 04:36 -34.01349 151.32742 7120 ft 290 kts 88°
2026-05-08 04:36 -34.01050 151.35174 7626 ft 298 kts 85°
2026-05-08 04:36 -34.00701 151.37668 8165 ft 304 kts 84°
2026-05-08 04:36 -34.00330 151.40187 8802 ft 307 kts 84°
2026-05-08 04:37 -33.99950 151.42742 9407 ft 312 kts 83°
2026-05-08 04:37 -33.99569 151.45325 10019 ft 315 kts 83°
2026-05-08 04:37 -33.99186 151.47974 10372 ft 329 kts 83°
2026-05-08 04:37 -33.98796 151.50722 10614 ft 345 kts 83°
2026-05-08 04:38 -33.98385 151.53636 10867 ft 361 kts 83°
2026-05-08 04:38 -33.97954 151.56686 11105 ft 376 kts 83°
2026-05-08 04:38 -33.97506 151.59851 11340 ft 391 kts 83°
2026-05-08 04:38 -33.97039 151.63136 11645 ft 403 kts 83°
2026-05-08 04:39 -33.96558 151.66494 12050 ft 411 kts 83°
2026-05-08 04:39 -33.96066 151.69909 12566 ft 416 kts 83°
2026-05-08 04:39 -33.95568 151.73353 13079 ft 420 kts 84°
2026-05-08 04:39 -33.95065 151.76836 13569 ft 425 kts 84°
2026-05-08 04:40 -33.94557 151.80356 14078 ft 429 kts 84°
2026-05-08 04:40 -33.94043 151.83914 14526 ft 433 kts 84°
2026-05-08 04:40 -33.93530 151.87454 14982 ft 437 kts 84°
2026-05-08 04:40 -33.93004 151.91081 15460 ft 441 kts 84°
2026-05-08 04:41 -33.92474 151.94731 15943 ft 446 kts 84°
2026-05-08 04:41 -33.91935 151.98436 16342 ft 451 kts 84°
2026-05-08 04:41 -33.91391 152.02169 16809 ft 455 kts 84°
2026-05-08 04:41 -33.90898 152.05937 17274 ft 456 kts 89°
2026-05-08 04:42 -33.90736 152.09749 17740 ft 456 kts 95°
2026-05-08 04:42 -33.90704 152.13577 18180 ft 460 kts 96°
2026-05-08 04:42 -33.90711 152.17393 18618 ft 463 kts 96°
2026-05-08 04:42 -33.90738 152.21271 19033 ft 465 kts 96°
2026-05-08 04:43 -33.90772 152.25175 19456 ft 468 kts 96°
2026-05-08 04:43 -33.90807 152.29101 19861 ft 471 kts 96°
2026-05-08 04:43 -33.90839 152.33056 20296 ft 475 kts 96°
2026-05-08 04:43 -33.90867 152.37047 20731 ft 478 kts 95°
2026-05-08 04:44 -33.90892 152.41059 21162 ft 482 kts 95°
2026-05-08 04:44 -33.90914 152.45108 21614 ft 485 kts 95°
2026-05-08 04:44 -33.90934 152.49179 22058 ft 489 kts 95°
2026-05-08 04:44 -33.90953 152.53234 22506 ft 492 kts 95°
2026-05-08 04:45 -33.90971 152.57373 22863 ft 497 kts 95°
2026-05-08 04:45 -33.90987 152.61545 23311 ft 500 kts 95°
2026-05-08 04:45 -33.91003 152.65750 23715 ft 503 kts 95°
2026-05-08 04:45 -33.91017 152.69972 24082 ft 506 kts 95°
2026-05-08 04:46 -33.90983 152.74232 24435 ft 512 kts 90°
2026-05-08 04:46 -33.90439 152.78491 24785 ft 520 kts 77°
2026-05-08 04:46 -33.89127 152.82570 25154 ft 525 kts 64°
2026-05-08 04:46 -33.87404 152.86454 25489 ft 529 kts 59°
2026-05-08 04:47 -33.85508 152.90203 25831 ft 532 kts 57°
2026-05-08 04:47 -33.83504 152.93946 26194 ft 533 kts 56°
2026-05-08 04:47 -33.81475 152.97681 26593 ft 535 kts 55°
2026-05-08 04:47 -33.79437 153.01445 26946 ft 538 kts 56°
2026-05-08 04:48 -33.77406 153.05239 27290 ft 540 kts 56°
2026-05-08 04:48 -33.75382 153.09055 27644 ft 543 kts 56°
2026-05-08 04:48 -33.73361 153.12893 27997 ft 545 kts 56°
2026-05-08 04:48 -33.71334 153.16754 28329 ft 549 kts 56°
2026-05-08 04:49 -33.69318 153.20597 28638 ft 552 kts 56°
2026-05-08 04:49 -33.67272 153.24496 28931 ft 553 kts 55°
2026-05-08 04:49 -33.65213 153.28412 29273 ft 555 kts 55°
2026-05-08 04:49 -33.63148 153.32332 29574 ft 557 kts 55°
2026-05-08 04:50 -33.61068 153.36275 29827 ft 560 kts 54°
2026-05-08 04:50 -33.58982 153.40223 30111 ft 562 kts 54°
2026-05-08 04:50 -33.56883 153.44192 30386 ft 564 kts 54°
2026-05-08 04:50 -33.54783 153.48163 30597 ft 566 kts 54°
2026-05-08 04:51 -33.52698 153.52098 30894 ft 565 kts 54°
2026-05-08 04:51 -33.50593 153.56068 31166 ft 565 kts 53°
2026-05-08 04:51 -33.48482 153.60044 31453 ft 565 kts 53°
2026-05-08 04:51 -33.46376 153.64006 31776 ft 564 kts 53°
2026-05-08 04:52 -33.44269 153.67964 32092 ft 562 kts 53°
2026-05-08 04:52 -33.42170 153.71904 32412 ft 561 kts 53°
2026-05-08 04:52 -33.40073 153.75836 32733 ft 561 kts 53°
2026-05-08 04:52 -33.37971 153.79772 32982 ft 561 kts 53°
2026-05-08 04:53 -33.35873 153.83697 33251 ft 560 kts 53°
2026-05-08 04:53 -33.33773 153.87622 33486 ft 559 kts 52°
2026-05-08 04:53 -33.31707 153.91478 33751 ft 558 kts 52°
2026-05-08 04:53 -33.29612 153.95386 34013 ft 557 kts 52°
2026-05-08 04:54 -33.27523 153.99277 34220 ft 557 kts 52°
2026-05-08 04:54 -33.25432 154.03166 34382 ft 557 kts 52°
2026-05-08 04:54 -33.23334 154.07066 34571 ft 558 kts 52°
2026-05-08 04:54 -33.21234 154.10964 34670 ft 559 kts 52°
2026-05-08 04:55 -33.19126 154.14874 34826 ft 559 kts 52°
2026-05-08 04:55 -33.17022 154.18772 35000 ft 559 kts 52°
2026-05-08 04:55 -33.14914 154.22675 35156 ft 559 kts 52°
2026-05-08 04:55 -33.12835 154.26519 35306 ft 559 kts 52°
2026-05-08 04:56 -33.10728 154.30411 35444 ft 559 kts 51°
2026-05-08 04:56 -33.08615 154.34310 35589 ft 559 kts 51°
2026-05-08 04:56 -33.06504 154.38201 35739 ft 560 kts 51°
2026-05-08 04:56 -33.04385 154.42102 35840 ft 560 kts 51°
2026-05-08 04:57 -33.02267 154.45997 35961 ft 561 kts 51°
2026-05-08 04:57 -33.00145 154.49898 36060 ft 561 kts 51°
2026-05-08 04:57 -32.98024 154.53791 36178 ft 561 kts 51°
2026-05-08 04:57 -32.95899 154.57688 36298 ft 561 kts 51°
2026-05-08 04:58 -32.93804 154.61525 36414 ft 561 kts 51°
2026-05-08 04:58 -32.91678 154.65415 36517 ft 561 kts 51°
2026-05-08 04:58 -32.89548 154.69309 36640 ft 561 kts 50°
2026-05-08 04:58 -32.87420 154.73194 36730 ft 561 kts 50°
2026-05-08 04:59 -32.83156 154.80969 36893 ft 561 kts 50°
2026-05-08 04:59 -32.78884 154.88739 37088 ft 561 kts 50°
2026-05-08 05:00 -32.74609 154.96501 37269 ft 561 kts 50°
2026-05-08 05:00 -32.70357 155.04204 37441 ft 562 kts 50°
2026-05-08 05:01 -32.66066 155.11963 37543 ft 562 kts 49°
2026-05-08 05:01 -32.61771 155.19711 37685 ft 562 kts 49°
2026-05-08 05:02 -32.57471 155.27454 37813 ft 562 kts 49°
2026-05-08 05:02 -32.53197 155.35134 37914 ft 562 kts 49°
2026-05-08 05:03 -32.48884 155.42868 38017 ft 562 kts 49°
2026-05-08 05:03 -32.46729 155.46729 38229 ft 564 kts 48°
2026-05-08 05:03 -32.44557 155.50611 38420 ft 566 kts 48°
2026-05-08 05:04 -32.42380 155.54498 38658 ft 567 kts 48°
2026-05-08 05:04 -32.40196 155.58395 38884 ft 568 kts 48°
2026-05-08 05:04 -32.38018 155.62280 39174 ft 567 kts 48°
2026-05-08 05:04 -32.35839 155.66165 39460 ft 565 kts 48°
2026-05-08 05:05 -32.33698 155.69979 39729 ft 564 kts 48°
2026-05-08 05:05 -32.31532 155.73833 39995 ft 563 kts 48°
2026-05-08 05:05 -32.29363 155.77686 40179 ft 562 kts 48°
2026-05-08 05:05 -32.27197 155.81526 40386 ft 562 kts 48°
2026-05-08 05:06 -32.25026 155.85372 40621 ft 561 kts 48°
2026-05-08 05:06 -32.22863 155.89202 40866 ft 560 kts 48°
2026-05-08 05:06 -32.20701 155.93026 41029 ft 561 kts 48°
2026-05-08 05:06 -32.18532 155.96857 41049 ft 560 kts 48°
2026-05-08 05:07 -32.14230 156.04446 41049 ft 560 kts 48°
2026-05-08 05:07 -32.09901 156.12067 41032 ft 560 kts 47°
2026-05-08 05:08 -32.05557 156.19698 41053 ft 561 kts 47°
2026-05-08 05:08 -32.01207 156.27327 41039 ft 561 kts 47°
2026-05-08 05:09 -31.96849 156.34955 41043 ft 560 kts 47°
2026-05-08 05:09 -31.92525 156.42506 41011 ft 560 kts 47°
2026-05-08 05:10 -31.85975 156.53918 41043 ft 561 kts 47°
2026-05-08 05:11 -31.81608 156.61509 41045 ft 561 kts 47°
2026-05-08 05:11 -31.77233 156.69097 41044 ft 561 kts 47°
2026-05-08 05:12 -31.72884 156.76627 41023 ft 560 kts 47°
2026-05-08 05:12 -31.68498 156.84204 41041 ft 561 kts 47°
2026-05-08 05:13 -31.64107 156.91777 41038 ft 561 kts 46°
2026-05-08 05:13 -31.59711 156.99342 41049 ft 561 kts 46°
2026-05-08 05:14 -31.55311 157.06900 41034 ft 561 kts 46°
2026-05-08 05:14 -31.50941 157.14391 41042 ft 561 kts 46°
2026-05-08 05:15 -31.46532 157.21935 41054 ft 561 kts 46°
2026-05-08 05:15 -31.42117 157.29472 41034 ft 561 kts 46°
2026-05-08 05:16 -31.37698 157.37005 41037 ft 561 kts 46°
2026-05-08 05:16 -31.33303 157.44480 41034 ft 561 kts 46°
2026-05-08 05:17 -31.28876 157.51997 41036 ft 561 kts 46°
2026-05-08 05:17 -31.24445 157.59506 41031 ft 561 kts 46°
2026-05-08 05:18 -31.20008 157.67010 41037 ft 561 kts 46°
2026-05-08 05:18 -31.15566 157.74508 41007 ft 561 kts 45°
2026-05-08 05:19 -31.11122 157.81996 41032 ft 561 kts 45°
2026-05-08 05:19 -31.06707 157.89420 41034 ft 561 kts 45°
2026-05-08 05:20 -31.02253 157.96896 41036 ft 561 kts 45°
2026-05-08 05:20 -30.97794 158.04366 41037 ft 561 kts 45°
2026-05-08 05:21 -30.93361 158.11780 41031 ft 562 kts 45°
2026-05-08 05:21 -30.88891 158.19238 41039 ft 561 kts 45°
2026-05-08 05:22 -30.84418 158.26689 41034 ft 562 kts 45°
2026-05-08 05:22 -30.79940 158.34134 41044 ft 561 kts 45°
2026-05-08 05:23 -30.75488 158.41523 41003 ft 561 kts 45°
2026-05-08 05:23 -30.71002 158.48953 41040 ft 561 kts 45°
2026-05-08 05:24 -30.66519 158.56365 41042 ft 561 kts 45°
2026-05-08 05:24 -30.62027 158.63777 41040 ft 561 kts 45°
2026-05-08 05:25 -30.57532 158.71181 41042 ft 561 kts 45°
2026-05-08 05:25 -30.53063 158.78529 41030 ft 561 kts 45°
2026-05-08 05:26 -30.48567 158.85908 41044 ft 560 kts 45°
2026-05-08 05:26 -30.44069 158.93276 41045 ft 560 kts 45°
2026-05-08 05:27 -30.39567 159.00636 41039 ft 560 kts 44°
2026-05-08 05:27 -30.35096 159.07933 41039 ft 560 kts 44°
2026-05-08 05:28 -30.30589 159.15275 41039 ft 559 kts 44°
2026-05-08 05:28 -30.26090 159.22594 41040 ft 558 kts 44°
2026-05-08 05:29 -30.21588 159.29900 41039 ft 558 kts 44°
2026-05-08 05:29 -30.17077 159.37207 41040 ft 558 kts 44°
2026-05-08 05:30 -30.12602 159.44445 41012 ft 557 kts 44°
2026-05-08 05:30 -30.08096 159.51720 41041 ft 556 kts 44°
2026-05-08 05:31 -30.03596 159.58973 41042 ft 555 kts 44°
2026-05-08 05:31 -29.99096 159.66211 41039 ft 555 kts 44°
2026-05-08 05:32 -29.94621 159.73395 41037 ft 555 kts 44°
2026-05-08 05:32 -29.90115 159.80617 41029 ft 555 kts 44°
2026-05-08 05:33 -29.85619 159.87813 41037 ft 553 kts 44°
2026-05-08 05:33 -29.81121 159.94997 41038 ft 553 kts 44°
2026-05-08 05:34 -29.76651 160.02123 41037 ft 553 kts 44°
2026-05-08 05:34 -29.72145 160.09291 40986 ft 553 kts 44°
2026-05-08 05:35 -29.67629 160.16460 41015 ft 555 kts 44°
2026-05-08 05:35 -29.63100 160.23645 41013 ft 555 kts 44°
2026-05-08 05:36 -29.58566 160.30827 41015 ft 555 kts 44°
2026-05-08 05:36 -29.54060 160.37951 41015 ft 555 kts 44°
2026-05-08 05:37 -29.49519 160.45116 41014 ft 555 kts 44°
2026-05-08 05:37 -29.44976 160.52271 41013 ft 554 kts 44°
2026-05-08 05:38 -29.40438 160.59408 41016 ft 554 kts 44°
2026-05-08 05:38 -29.35886 160.66552 41010 ft 554 kts 43°
2026-05-08 05:39 -29.31371 160.73625 41011 ft 554 kts 43°
2026-05-08 05:39 -29.26818 160.80747 41012 ft 554 kts 43°
2026-05-08 05:40 -29.22263 160.87860 41013 ft 554 kts 43°
2026-05-08 05:40 -29.17705 160.94965 41013 ft 554 kts 43°
2026-05-08 05:41 -29.13171 161.02019 41007 ft 554 kts 43°
2026-05-08 05:41 -29.08603 161.09117 41008 ft 554 kts 43°
2026-05-08 05:42 -29.04032 161.16206 40961 ft 554 kts 43°
2026-05-08 05:42 -28.99458 161.23287 41001 ft 554 kts 43°
2026-05-08 05:43 -28.94882 161.30360 41009 ft 554 kts 43°
2026-05-08 05:43 -28.90361 161.37336 41005 ft 554 kts 43°
2026-05-08 05:44 -28.85776 161.44399 41011 ft 554 kts 43°
2026-05-08 05:44 -28.81188 161.51455 40977 ft 554 kts 43°
2026-05-08 05:45 -28.76599 161.58500 41006 ft 553 kts 43°
2026-05-08 05:45 -28.72039 161.65489 41014 ft 554 kts 43°
2026-05-08 05:46 -28.67438 161.72529 41007 ft 554 kts 43°
2026-05-08 05:46 -28.62834 161.79563 41011 ft 554 kts 43°
2026-05-08 05:47 -28.58225 161.86591 40971 ft 554 kts 43°
2026-05-08 05:47 -28.53643 161.93567 41006 ft 554 kts 43°
2026-05-08 05:48 -28.49028 162.00583 41008 ft 554 kts 43°
2026-05-08 05:48 -28.44409 162.07593 41004 ft 554 kts 43°
2026-05-08 05:49 -28.39786 162.14597 41003 ft 554 kts 43°
2026-05-08 05:49 -28.35195 162.21540 41007 ft 554 kts 43°
2026-05-08 05:50 -28.30564 162.28532 41003 ft 554 kts 43°
2026-05-08 05:50 -28.25930 162.35519 41008 ft 554 kts 43°
2026-05-08 05:51 -28.21293 162.42499 41004 ft 554 kts 43°
2026-05-08 05:51 -28.16683 162.49426 41004 ft 554 kts 43°
2026-05-08 05:52 -28.12041 162.56391 41005 ft 554 kts 43°
2026-05-08 05:52 -28.07393 162.63351 41003 ft 554 kts 43°
2026-05-08 05:53 -28.02737 162.70312 41003 ft 555 kts 43°
2026-05-08 05:53 -27.98075 162.77273 41008 ft 555 kts 43°
2026-05-08 05:54 -27.93441 162.84182 41004 ft 555 kts 43°
2026-05-08 05:54 -27.88779 162.91120 41007 ft 555 kts 43°
2026-05-08 05:55 -27.84108 162.98060 40999 ft 555 kts 43°
2026-05-08 05:55 -27.79510 163.05092 41003 ft 559 kts 46°
2026-05-08 05:56 -27.75174 163.12337 41005 ft 561 kts 47°
2026-05-08 05:56 -27.70825 163.19645 41003 ft 560 kts 46°
2026-05-08 05:57 -27.66432 163.26905 41002 ft 560 kts 46°
2026-05-08 05:57 -27.62016 163.34133 40995 ft 560 kts 46°
2026-05-08 05:58 -27.57623 163.41300 41004 ft 560 kts 46°
2026-05-08 05:58 -27.53196 163.48517 41001 ft 560 kts 46°
2026-05-08 05:59 -27.48762 163.55738 41001 ft 560 kts 46°
2026-05-08 05:59 -27.44335 163.62936 41000 ft 560 kts 46°
2026-05-08 06:00 -27.39928 163.70089 41003 ft 560 kts 46°
2026-05-08 06:00 -27.35487 163.77285 41004 ft 560 kts 46°
2026-05-08 06:01 -27.31044 163.84473 41000 ft 559 kts 46°
2026-05-08 06:01 -27.26599 163.91652 40998 ft 559 kts 46°
2026-05-08 06:02 -27.22150 163.98827 40996 ft 559 kts 46°
2026-05-08 06:02 -27.17732 164.05939 40996 ft 559 kts 46°
2026-05-08 06:03 -27.13274 164.13105 40984 ft 559 kts 46°
2026-05-08 06:03 -27.08828 164.20242 40992 ft 558 kts 46°
2026-05-08 06:04 -27.04378 164.27372 40994 ft 558 kts 46°
2026-05-08 06:04 -26.99925 164.34495 40991 ft 558 kts 46°
2026-05-08 06:05 -26.95496 164.41567 40987 ft 558 kts 46°
2026-05-08 06:05 -26.91033 164.48683 40996 ft 558 kts 46°
2026-05-08 06:06 -26.86566 164.55796 40995 ft 558 kts 46°
2026-05-08 06:06 -26.82096 164.62901 40991 ft 558 kts 46°
2026-05-08 06:07 -26.77657 164.69946 41001 ft 558 kts 46°
2026-05-08 06:07 -26.73177 164.77042 41000 ft 559 kts 46°
2026-05-08 06:08 -26.68683 164.84152 40996 ft 559 kts 46°
2026-05-08 06:08 -26.64194 164.91243 40977 ft 559 kts 46°
2026-05-08 06:09 -26.59693 164.98342 40996 ft 560 kts 46°
2026-05-08 06:09 -26.55218 165.05389 40996 ft 560 kts 46°
2026-05-08 06:10 -26.50710 165.12476 40996 ft 560 kts 46°
2026-05-08 06:10 -26.46197 165.19561 40996 ft 560 kts 46°
2026-05-08 06:11 -26.41680 165.26640 40996 ft 560 kts 46°
2026-05-08 06:11 -26.37193 165.33661 40994 ft 560 kts 46°
2026-05-08 06:12 -26.32668 165.40730 40995 ft 560 kts 46°
2026-05-08 06:12 -26.28141 165.47793 40998 ft 560 kts 46°
2026-05-08 06:13 -26.23611 165.54850 40993 ft 560 kts 46°
2026-05-08 06:13 -26.19107 165.61854 40995 ft 560 kts 46°
2026-05-08 06:14 -26.14569 165.68901 40968 ft 560 kts 46°
2026-05-08 06:14 -26.10030 165.75938 40999 ft 559 kts 46°
2026-05-08 06:15 -26.05489 165.82967 40999 ft 559 kts 46°
2026-05-08 06:15 -26.00975 165.89945 40999 ft 560 kts 46°
2026-05-08 06:16 -25.96431 165.96958 40996 ft 560 kts 46°
2026-05-08 06:16 -25.91875 166.03979 41000 ft 559 kts 46°
2026-05-08 06:17 -25.85045 166.14483 41000 ft 559 kts 46°
2026-05-08 06:17 -25.80519 166.21433 40999 ft 559 kts 46°
2026-05-08 06:18 -25.75955 166.28429 41001 ft 559 kts 46°
2026-05-08 06:18 -25.71394 166.35412 40999 ft 559 kts 46°
2026-05-08 06:19 -25.66831 166.42385 40997 ft 559 kts 46°
2026-05-08 06:19 -25.62261 166.49359 40967 ft 559 kts 46°
2026-05-08 06:20 -25.57725 166.56271 40996 ft 558 kts 47°
2026-05-08 06:20 -25.53164 166.63213 40995 ft 557 kts 47°
2026-05-08 06:21 -25.48602 166.70143 40998 ft 557 kts 46°
2026-05-08 06:21 -25.44036 166.77070 40999 ft 557 kts 46°
2026-05-08 06:22 -25.39498 166.83943 40999 ft 557 kts 46°
2026-05-08 06:22 -25.34925 166.90860 40977 ft 557 kts 47°
2026-05-08 06:23 -25.30354 166.97767 40999 ft 556 kts 47°
2026-05-08 06:23 -25.25787 167.04655 41009 ft 556 kts 47°
2026-05-08 06:24 -25.21245 167.11495 40995 ft 556 kts 47°
2026-05-08 06:24 -25.16673 167.18371 41006 ft 556 kts 47°
2026-05-08 06:25 -25.12097 167.25242 40997 ft 555 kts 47°
2026-05-08 06:25 -25.07518 167.32109 41002 ft 555 kts 47°
2026-05-08 06:26 -25.02941 167.38963 41007 ft 555 kts 47°
2026-05-08 06:26 -24.98395 167.45760 41007 ft 555 kts 47°
2026-05-08 06:27 -24.93812 167.52604 41007 ft 555 kts 47°
2026-05-08 06:27 -24.89229 167.59437 41008 ft 555 kts 47°
2026-05-08 06:28 -24.84637 167.66274 41007 ft 555 kts 47°
2026-05-08 06:28 -24.80070 167.73063 41000 ft 556 kts 47°
2026-05-08 06:29 -24.75473 167.79892 41006 ft 555 kts 47°
2026-05-08 06:29 -24.70869 167.86713 41006 ft 555 kts 47°
2026-05-08 06:30 -24.66302 167.93468 41010 ft 555 kts 47°
2026-05-08 06:30 -24.61691 168.00282 41010 ft 556 kts 47°
2026-05-08 06:31 -24.57072 168.07097 41009 ft 556 kts 47°
2026-05-08 06:31 -24.52452 168.13905 40997 ft 556 kts 47°
2026-05-08 06:32 -24.47867 168.20654 41010 ft 555 kts 47°
2026-05-08 06:32 -24.43255 168.27433 41015 ft 554 kts 47°
2026-05-08 06:33 -24.38633 168.34213 41009 ft 554 kts 47°
2026-05-08 06:33 -24.34792 168.39843 41015 ft 554 kts 47°
2026-05-08 06:34 -24.29422 168.47703 41015 ft 554 kts 47°
2026-05-08 06:34 -24.24797 168.54463 41015 ft 554 kts 47°
2026-05-08 06:35 -24.20951 168.60077 41015 ft 554 kts 47°
2026-05-08 06:35 -24.16321 168.66827 41015 ft 554 kts 47°
2026-05-08 06:36 -24.10933 168.74667 41015 ft 554 kts 47°
2026-05-08 06:36 -24.07052 168.80310 41015 ft 554 kts 47°
2026-05-08 06:37 -24.01660 168.88138 41015 ft 554 kts 47°
2026-05-08 06:37 -23.97801 168.93732 40993 ft 554 kts 48°
2026-05-08 06:38 -23.93161 169.00451 41015 ft 554 kts 48°
2026-05-08 06:38 -23.88518 169.07165 41015 ft 553 kts 47°
2026-05-08 06:39 -23.83907 169.13824 41021 ft 553 kts 47°
2026-05-08 06:39 -23.79264 169.20520 41014 ft 553 kts 47°
2026-05-08 06:40 -23.74613 169.27218 41014 ft 553 kts 47°
2026-05-08 06:40 -23.69963 169.33907 41015 ft 553 kts 47°
2026-05-08 06:41 -23.65343 169.40542 41016 ft 552 kts 48°
2026-05-08 06:41 -23.60696 169.47208 41017 ft 552 kts 48°
2026-05-08 06:42 -23.56045 169.53871 41016 ft 552 kts 48°
2026-05-08 06:42 -23.51428 169.60477 41015 ft 552 kts 48°
2026-05-08 06:43 -23.46802 169.67087 41011 ft 552 kts 48°
2026-05-08 06:43 -23.42801 169.72796 41013 ft 552 kts 48°